Regional Weather Roundup
Issued by NWS

Home | Current Version | Previous Version | Graphics & Text | Print | Product List | Glossary On
Versions: 1 2 3 4 5 6 7 8 9 10 11 12 13 14 15 16 17 18 19 20 21 22 23 24 25 26 27 28 29 30 31 32 33 34 35 36 37 38 39 40 41 42 43 44 45 46 47 48 49 50
000
ASUS43 KLOT 282300
RWRIL

ILLINOIS REGIONAL WEATHER ROUNDUP
NATIONAL WEATHER SERVICE CHICAGO/ROMEOVILLE IL
500 PM CST SUN DEC 28 2014

NOTE: "FAIR" INDICATES FEW OR NO CLOUDS BELOW 12,000 FEET WITH NO
SIGNIFICANT WEATHER AND/OR OBSTRUCTIONS TO VISIBILITY.

* THESE STATIONS ARE NOT UNDER NWS QUALITY CONTROL. THEY ALSO MAY NOT
  REPORT WEATHER SUCH AS PRECIPITATION OR FOG.

ILZ001-002-007-009-015-016-024-290000-
NORTHWEST ILLINOIS

CITY           SKY/WX    TMP DP  RH WIND       PRES   REMARKS
MOLINE         CLEAR     30  21  69 CALM      30.18R
STERLING*      CLEAR     28  16  59 NW3       30.19R
$$

ILZ003-004-008-010-011-017-018-290000-
NORTH CENTRAL ILLINOIS

CITY           SKY/WX    TMP DP  RH WIND       PRES   REMARKS
ROCKFORD       CLEAR     30  17  58 NW3       30.19S
DE KALB*       CLEAR     29  15  56 SW3       30.17S
$$

ILZ005-006-012>014-019>023-290000-
NORTHEAST ILLINOIS

CITY           SKY/WX    TMP DP  RH WIND       PRES   REMARKS
CHICAGO-OHARE  CLEAR     30  16  56 NW6       30.17R WCI  24
CHICAGO-MIDWAY CLEAR     32  17  54 SW7       30.18S WCI  26
AURORA         CLEAR     28  19  69 W5        30.18S WCI  23
WAUKEGAN       CLEAR     28  16  60 CALM      30.16S
DUPAGE AIRPORT CLEAR     29  17  61 W6        30.17R WCI  23
WHEELING       CLEAR     32  14  47 W5        30.18S WCI  27
NORTHERLY ISL    N/A     34  16  48 SW5         N/A  WCI  30
$$

LMZ740>746-290000-
SOUTHERN LAKE MICHIGAN

STATION/POSITION SKY/WX   TEMP    WIND        PRES    VSBY  WAVE
                          AIR SEA DIR/SP/G                  HT/PER
                          (F)     (DEG/KT/KT) (MB)    (MI)  (FT/S)
WAUKEGAN HARBOR            33     310/  2/  5   N/A
HARRISON CRIB              35     280/ 10/ 12   N/A
BURNHAM HARBOR             34     230/  4/ 10   N/A
CALUMET HARBOR             33     200/  5/  7 1020.9R
MICHIGAN CITY              32     220/ 10/ 11   N/A
$$

ILZ025>027-034>036-040-047-049-050-058-095>099-290000-
WEST-CENTRAL ILLINOIS

CITY           SKY/WX    TMP DP  RH WIND       PRES   REMARKS
QUINCY         CLEAR     34  18  52 W3        30.18S
MACOMB*        CLEAR     31  25  76 S5        30.20S WCI  27
$$

ILZ028>032-037-038-041>044-048-051>054-059>061-290000-
CENTRAL ILLINOIS

CITY           SKY/WX    TMP DP  RH WIND       PRES   REMARKS
DECATUR        CLEAR     30  22  72 NE3       30.21S
PEORIA         CLEAR     33  17  51 S5        30.19F WCI  29
LINCOLN*       CLEAR     32  23  71 CALM      30.21S
SPRINGFIELD    CLEAR     32  22  66 CALM      30.20S
TAYLORVILLE    NOT AVBL
$$

ILZ033-039-045-046-055>057-062-063-290000-
EAST-CENTRAL ILLINOIS

CITY           SKY/WX    TMP DP  RH WIND       PRES   REMARKS
CHAMPAIGN      CLEAR     29  21  72 CALM      30.20S
MATTOON        CLEAR     28  22  78 N3        30.20S
$$

ILZ079-100>102-290000-
SOUTHWEST ILLINOIS

CITY           SKY/WX    TMP DP  RH WIND       PRES   REMARKS
ALTON          PTCLDY    34  25  69 SE3       30.21
BELLEVILLE     CLEAR     33  26  78 NE2       30.21S
CAHOKIA*       CLEAR     34  25  69 CALM      30.21F
SPARTA*        CLOUDY    32  27  80 CALM      30.22S
$$

ILZ064>066-069>071-074>076-080>082-084>086-088>090-092>094-290000-
SOUTH-CENTRAL ILLINOIS

CITY           SKY/WX    TMP DP  RH WIND       PRES   REMARKS
CARBONDALE     CLOUDY    33  27  78 NE7       30.22R WCI  27
MARION         CLOUDY    34  28  80 N9        30.23  WCI  26
MT. VERNON     CLOUDY    32  23  69 N3        30.22F
SALEM*         PTCLDY    33  28  79 N3        30.21S
$$

ILZ067-068-072-073-078-083-087-091-290000-
SOUTHEAST ILLINOIS

CITY           SKY/WX    TMP DP  RH WIND       PRES   REMARKS
LAWRENCEVILLE  CLOUDY    31  25  78 N7        30.23S WCI  24
ROBINSON*      CLOUDY    30  24  78 N3        30.23F
$$

ABBREVIATIONS USED IN REMARKS
   TC - TEMPERATURE IN CELSIUS
  WCI - WIND CHILL INDEX
   HX - HEAT INDEX
  VSB - VISIBILITY
$$




USA.gov is the U.S. government's official web portal to all federal, state and local government web resources and services.